Tracking 35237 objects as of 6-Sep-2026
HD Live streaming from Space Station
objects crossing your sky now

CENTISPACE-1 S14

Track CENTISPACE-1 S14 now!
10-day predictions


NORAD ID: 62583
Int'l Code: 2025-007J
Launch date: January 13, 2025
Source: People's Republic of China (PRC)
Launch site: Yellow Sea Launch Area, China (YSLA)
Your satellite tracking list
Your tracking list is empty




NASA's NSSDC Master Catalog

Two Line Element Set (TLE):
1 62583U 25007J   26249.29825692 -.00000078  00000-0  59034-4 0  9995
2 62583  54.9861   8.9571 0009080 246.9608 113.0391 13.80621829 85912
Source of the keplerian elements: AFSPC